This demonstration page uses our WeatherBlox Daily Observations layout. Learn more.

Left ArrowRight Arrow

Hourly Observations for June 21, 2021

Temp ( °F °C ) Dew Point ( °F °C ) Humidity (%) Winds ( mph kmh ) Pressure ( in mb ) Visibility ( mi km ) Precip ( " mm )
12:06 am 00:06 Clear 93 33.9 59 15 32 32 S 15 24 29.54 1000 10 16 0.00 0.00
12:53 am 00:53 Clear 91 32.8 60 15.6 35 35 E 16 26 29.62 1003 10 16 0.00 0.00
1:00 am 01:00 Clear 90 32.2 60 15.6 37 37 E 15 24 29.57 1002 10 16 0.00 0.00
1:53 am 01:53 Clear 89 31.7 61 16.1 39 39 ESE 15 24 29.59 1002 10 16 0.00 0.00
2:53 am 02:53 Clear 87 30.6 60 15.6 40 40 SE 21 33 29.58 1002 10 16 0.00 0.00
3:53 am 03:53 Clear 86 30 61 16.1 43 43 ENE 13 20 29.57 1002 10 16 0.00 0.00
4:00 am 04:00 Clear 85 29.4 61 16.1 45 45 SE 15 24 29.54 1000 10 16 0.00 0.00
4:53 am 04:53 Clear 83 28.3 63 17.2 51 51 SE 16 26 29.57 1002 10 16 0.00 0.00
5:53 am 05:53 Clear 81 27.2 65 18.3 58 58 S 13 20 29.60 1002 10 16 0.00 0.00
6:53 am 06:53 Sunny 79 26.1 66 18.9 65 65 SSE 9 15 29.61 1003 10 16 0.00 0.00
7:53 am 07:53 Sunny 79 26.1 67 19.4 67 67 SE 8 13 29.62 1003 10 16 0.00 0.00
8:53 am 08:53 Sunny 81 27.2 68 20 65 65 SE 12 19 29.64 1004 10 16 0.00 0.00
9:53 am 09:53 Sunny 83 28.3 68 20 61 61 SSE 7 11 29.67 1005 10 16 0.00 0.00
10:53 am 10:53 Sunny 88 31.1 67 19.4 50 50 NNE 16 26 29.72 1006 10 16 0.00 0.00
11:53 am 11:53 Sunny 92 33.3 66 18.9 43 43 NE 16 26 29.72 1007 10 16 0.00 0.00
12:53 pm 12:53 Sunny 94 34.4 65 18.3 38 38 NNE 15 24 29.74 1007 10 16 0.00 0.00
1:53 pm 13:53 Sunny 91 32.8 65 18.3 42 42 NE 21 33 29.76 1008 10 16 0.00 0.00
2:53 pm 14:53 Sunny 93 33.9 65 18.3 40 40 NE 22 35 29.77 1008 10 16 0.00 0.00
3:53 pm 15:53 Sunny 91 32.8 64 17.8 41 41 NE 16 26 29.77 1008 10 16 0.00 0.00
4:53 pm 16:53 Mostly Sunny 92 33.3 63 17.2 38 38 NNE 16 26 29.78 1008 10 16 0.00 0.00
5:53 pm 17:53 Sunny 92 33.3 63 17.2 38 38 NNE 21 33 29.77 1008 10 16 0.00 0.00
6:53 pm 18:53 Sunny 90 32.2 62 16.7 39 39 NNE 20 31 29.77 1008 10 16 0.00 0.00
7:53 pm 19:53 Sunny 86 30 60 15.6 42 42 NE 21 33 29.80 1009 10 16 0.00 0.00
8:53 pm 20:53 Sunny 82 27.8 60 15.6 47 47 NE 20 31 29.84 1011 10 16 0.00 0.00
9:53 pm 21:53 Clear 79 26.1 59 15 50 50 ENE 18 30 29.89 1012 10 16 0.00 0.00
10:53 pm 22:53 Partly Cloudy 75 23.9 60 15.6 60 60 E 17 28 29.93 1014 10 16 0.00 0.00
11:30 pm 23:30 Mostly Cloudy 74 23.3 59 15 60 60 E 9 15 29.96 1014 10 16 0.00 0.00
11:53 pm 23:53 Cloudy 75 23.9 59 15 58 58 ESE 14 22 29.96 1015 10 16 0.00 0.00

Powered by AerisWeather